Wind_Speed
32 30 24 24 27 25 27 27 24 21 21 18 11 11 16 18 16 11 13 11 12 17 23 23 15 5 20 13 12 16 11 11 10 15 16 15 16 16 14 13 17 16 16 16
29 22 23 27 27 28 29 27 22 22 25 22 21 17 17 16 16 13 15 12 12 14 20 21 16 9 4 12 14 16 13 12 12 14 16 18 18 15 14 12 14 16 15 15
24 17 27 30 28 28 28 28 22 23 24 24 21 16 16 13 15 15 17 13 12 10 14 19 14 12 8 11 13 17 19 16 17 15 13 16 16 15 16 12 13 15 14 17
27 28 29 28 29 28 29 25 26 26 22 19 18 14 16 16 15 15 10 10 9 10 15 17 10 10 8 8 11 17 25 21 22 16 13 13 14 13 15 13 14 16 17 21
23 30 26 28 25 29 27 28 27 26 20 15 14 18 14 16 12 9 9 12 8 12 12 11 11 10 11 12 13 16 18 22 24 19 14 12 14 13 15 17 19 19 21 17
30 33 32 28 28 30 27 30 29 27 18 14 18 17 11 13 8 11 12 12 9 13 7 9 12 12 12 15 17 15 17 21 25 20 14 11 11 13 16 16 17 18 18 21
31 33 31 30 29 30 28 29 31 25 18 10 18 16 12 13 11 11 13 10 13 14 13 12 12 12 14 16 17 18 19 24 24 19 13 11 11 16 16 16 15 18 21 25
28 31 26 23 25 26 30 27 26 22 19 14 21 18 18 14 14 14 14 15 15 12 12 15 15 14 15 16 17 18 19 21 24 10 10 10 12 13 14 16 14 19 22 26
30 30 26 28 25 26 29 28 23 27 24 23 23 21 19 18 19 16 17 20 18 17 16 15 15 16 18 18 17 16 17 19 16 13 12 11 12 12 15 16 17 20 25 27
33 32 30 29 32 33 33 28 29 32 29 29 22 22 21 19 23 19 18 20 21 21 21 17 15 17 17 19 17 15 15 16 17 17 12 11 13 15 16 18 20 22 24 25
39 39 35 38 40 35 34 35 35 34 34 30 26 22 19 22 26 24 23 21 24 26 24 19 17 18 17 15 12 15 16 16 17 20 20 19 16 17 16 20 23 24 25 26
42 42 40 40 39 39 40 39 37 38 36 33 31 25 18 24 27 29 26 26 26 26 26 24 21 19 15 12 13 18 21 21 20 21 21 22 22 19 19 20 24 25 27 29
44 47 45 40 42 43 42 40 39 38 38 38 33 26 17 24 28 29 31 30 31 30 29 30 29 24 23 22 23 24 24 24 24 23 23 22 22 22 22 24 23 25 22 30
48 48 49 46 39 40 41 42 41 38 39 36 34 28 26 26 30 32 33 33 32 32 31 31 31 28 27 27 27 26 26 28 30 27 26 24 22 22 24 25 24 29 25 28
48 51 50 46 42 40 40 41 42 39 38 40 37 35 35 37 31 28 32 33 33 32 30 31 32 29 27 29 28 26 28 27 28 29 27 26 25 26 26 24 27 29 29 28
48 50 50 48 48 45 42 42 45 45 44 42 41 40 38 38 36 34 33 35 33 30 30 32 31 32 31 31 31 25 27 29 29 30 29 28 27 29 29 29 31 30 30 30
51 51 51 50 48 47 47 46 46 47 48 49 48 44 42 41 40 36 37 37 36 36 34 31 30 30 33 30 33 32 28 27 28 29 31 30 29 30 31 32 32 31 31 30
54 52 50 50 49 50 48 43 41 42 46 48 47 46 45 45 44 43 41 40 38 37 36 34 31 32 33 34 34 35 34 30 28 29 31 32 32 31 33 34 33 32 31 30
57 56 56 55 54 53 49 46 43 42 44 45 46 47 48 47 47 46 44 42 40 40 40 39 37 37 35 35 35 39 36 34 30 30 31 32 33 33 34 35 35 34 32 31
61 62 61 60 59 57 52 50 48 47 50 50 48 47 46 46 47 47 46 44 45 45 43 40 37 34 36 39 41 47 39 35 34 33 34 33 32 34 34 36 36 35 34 34
63 63 65 63 63 62 59 57 56 57 54 48 47 48 48 47 48 49 48 47 46 45 45 44 42 39 40 41 40 44 44 36 38 37 35 33 33 35 35 36 36 36 36 36
65 67 65 62 62 60 58 57 57 57 55 52 51 50 50 50 48 48 48 48 46 47 47 46 44 44 43 43 45 46 43 44 48 41 37 34 34 35 36 36 37 37 37 37
63 63 63 65 67 64 61 61 56 54 52 51 50 49 48 47 48 48 49 48 48 48 47 47 47 47 45 46 46 46 51 48 44 51 54 36 33 35 38 38 38 38 38 38
54 54 56 57 60 61 62 60 57 55 52 48 47 47 45 44 44 43 45 46 47 47 45 43 44 46 45 47 47 50 52 52 52 47 44 38 40 41 40 42 43 41 40 40
48 49 51 53 56 56 54 52 50 48 47 45 44 44 43 41 40 38 40 39 40 43 43 42 42 41 43 46 50 52 52 48 53 52 48 46 44 41 44 44 44 42 41 41
40 43 46 48 48 47 46 45 45 45 45 46 45 46 45 46 46 46 45 44 42 42 45 44 45 47 48 49 48 50 51 53 51 50 48 48 48 44 44 48 46 43 42 43
Wind_Direction
238 236 232 226 228 231 236 240 248 254 258 247 244 266 288 298 294 310 310 351 13 14 11 16 40 61 357 343 305 247 251 271 273 287 284 281 269 268 269 273 277 287 289 289
235 230 222 225 229 232 241 246 249 251 263 258 252 270 275 292 295 299 300 330 358 13 16 9 17 26 334 313 304 269 260 262 267 274 276 278 280 279 282 280 283 284 290 288
231 210 219 222 228 234 241 246 247 250 254 265 266 264 272 276 287 291 298 335 350 352 2 3 7 2 357 300 309 270 266 261 266 269 280 292 286 284 288 287 285 288 293 294
225 214 222 224 225 230 236 241 244 250 253 256 269 263 260 269 276 296 324 323 351 344 356 359 358 357 346 327 323 293 278 267 263 262 276 283 291 292 290 282 282 286 291 295
229 232 235 233 232 235 235 239 249 257 265 258 263 262 252 265 293 287 270 318 318 343 12 18 14 7 353 341 338 321 294 269 257 260 263 272 289 293 285 287 297 287 291 289
216 225 228 227 226 237 234 238 246 256 254 235 230 259 264 272 276 271 291 297 332 323 359 344 357 354 350 344 341 332 306 293 265 272 251 267 289 298 295 297 300 291 286 292
217 226 229 231 232 238 239 241 246 244 238 219 243 255 261 274 290 289 288 299 311 323 327 334 337 340 336 335 335 334 320 314 288 277 250 269 285 289 296 297 279 279 287 292
219 223 228 228 231 242 243 238 240 242 237 226 250 255 264 273 272 279 286 277 295 308 310 324 338 341 335 329 328 331 328 321 303 241 252 267 278 287 302 284 282 297 299 305
223 223 224 228 227 231 241 241 243 245 240 235 245 256 258 263 268 273 280 286 296 299 304 317 324 338 332 330 322 325 323 318 319 309 267 280 269 281 288 297 296 299 301 306
228 229 227 229 232 231 233 237 236 242 246 249 244 248 259 262 267 270 276 284 288 285 293 306 321 323 324 321 316 315 313 310 306 305 292 256 264 285 293 294 291 297 303 304
233 234 225 230 234 236 240 240 240 244 252 256 256 247 244 259 267 274 274 275 281 288 295 306 308 305 308 313 313 315 313 309 297 302 297 292 282 279 288 294 295 299 299 303
234 237 231 236 238 238 239 240 243 249 255 260 256 249 237 251 261 272 277 279 280 284 290 294 295 299 295 296 302 315 309 303 299 297 297 292 286 281 280 280 283 289 293 298
231 234 237 226 235 238 242 247 246 247 251 253 253 261 249 253 265 269 274 278 283 288 294 300 303 304 298 295 297 303 306 299 296 295 291 292 290 280 278 279 275 278 290 297
228 233 238 238 241 244 247 250 253 251 253 260 262 262 260 259 260 268 272 278 282 288 293 292 293 294 293 293 295 295 297 298 295 292 291 292 289 287 281 282 271 287 296 298
231 237 239 241 233 232 238 244 251 252 255 257 263 264 264 267 268 268 273 275 279 283 285 287 291 292 291 289 288 285 290 291 290 290 290 288 290 291 288 279 274 287 292 293
236 240 241 243 242 237 235 238 241 248 253 258 262 266 268 269 270 271 267 272 276 277 280 286 289 290 289 286 288 290 292 288 287 286 285 284 283 284 282 279 282 285 288 289
236 238 240 243 245 245 242 236 236 241 249 254 259 264 268 270 273 275 277 280 284 288 287 286 285 287 291 290 287 288 287 285 281 282 282 281 281 280 280 280 281 284 285 289
236 238 239 243 245 245 246 247 247 245 247 253 259 263 266 270 273 274 275 277 280 282 286 287 284 282 283 281 280 279 280 284 283 285 282 279 277 278 278 279 281 281 284 288
233 236 240 242 246 248 250 250 249 251 252 253 255 259 262 266 269 272 274 277 279 282 283 285 285 283 279 275 277 277 278 276 280 283 279 276 274 275 277 279 280 281 283 284
231 234 236 242 246 250 253 255 255 255 254 258 262 264 264 264 265 269 272 274 276 277 277 276 273 270 271 273 275 278 280 277 278 280 279 276 273 274 276 278 280 282 283 286
234 236 239 242 246 249 251 254 256 257 260 260 259 260 260 260 262 266 269 271 272 272 274 275 275 271 271 270 269 272 276 278 278 276 271 272 272 273 275 279 281 282 283 286
235 238 242 246 249 251 252 253 253 256 259 259 258 259 262 264 265 268 270 271 270 270 269 268 267 268 268 268 265 268 270 278 284 270 261 263 267 271 275 278 282 283 284 284
235 238 241 241 243 248 252 254 254 254 258 259 262 264 264 267 270 272 271 271 270 268 266 266 268 268 265 263 263 265 271 273 272 280 262 254 264 271 274 276 277 281 283 283
238 240 243 244 247 248 251 254 257 259 261 262 263 264 267 269 268 265 265 264 265 265 266 265 262 259 260 260 262 263 267 269 273 279 273 273 269 267 270 272 273 277 277 281
241 241 244 248 249 251 253 256 258 260 262 263 264 266 268 264 260 258 260 264 264 264 263 261 261 259 259 258 258 260 263 268 271 275 277 275 268 272 273 269 269 272 274 276
238 242 244 247 250 254 255 256 258 260 260 261 263 263 261 259 258 256 254 255 254 261 263 257 254 255 260 262 261 261 263 265 270 271 274 272 268 268 273 269 265 268 269 272
Height
5825 5828 5833 5836 5836 5836 5836 5838 5840 5841 5841 5843 5844 5842 5840 5840 5839 5838 5838 5838 5835 5835 5832 5827 5822 5827 5828 5826 5826 5824 5824 5823 5823 5823 5822 5821 5821 5819 5817 5817 5817 5816 5814 5811
5819 5825 5828 5827 5829 5831 5831 5833 5836 5837 5836 5838 5839 5839 5837 5835 5835 5835 5834 5835 5833 5834 5831 5827 5824 5824 5824 5824 5824 5822 5821 5820 5819 5820 5820 5819 5818 5815 5813 5814 5814 5812 5810 5807
5816 5822 5819 5821 5823 5825 5827 5828 5831 5833 5833 5833 5834 5835 5833 5832 5831 5831 5831 5832 5830 5831 5830 5828 5826 5825 5823 5821 5820 5819 5818 5817 5816 5816 5815 5815 5814 5812 5810 5810 5810 5808 5805 5804
5810 5812 5814 5816 5818 5821 5821 5825 5824 5826 5829 5829 5829 5830 5828 5828 5828 5828 5829 5828 5828 5828 5828 5826 5825 5823 5821 5819 5817 5816 5814 5813 5813 5812 5811 5810 5810 5809 5808 5808 5807 5805 5801 5800
5809 5807 5810 5811 5816 5815 5818 5819 5819 5821 5824 5825 5825 5824 5823 5824 5826 5826 5826 5825 5824 5824 5824 5825 5823 5821 5819 5817 5815 5813 5811 5809 5807 5807 5807 5807 5807 5805 5804 5805 5803 5801 5797 5796
5800 5800 5802 5807 5810 5810 5814 5813 5815 5817 5820 5821 5820 5820 5821 5821 5822 5822 5822 5822 5820 5821 5823 5823 5821 5818 5817 5815 5813 5811 5808 5806 5802 5802 5804 5804 5803 5801 5801 5801 5798 5797 5794 5792
5793 5793 5797 5800 5804 5805 5807 5809 5810 5813 5815 5818 5816 5817 5818 5818 5818 5818 5818 5817 5817 5818 5818 5819 5818 5815 5812 5811 5809 5807 5805 5802 5800 5798 5800 5800 5799 5798 5798 5797 5794 5792 5789 5787
5787 5789 5793 5797 5798 5801 5801 5804 5805 5807 5810 5813 5811 5813 5813 5815 5815 5815 5814 5814 5815 5815 5815 5814 5813 5811 5809 5807 5805 5804 5801 5798 5795 5794 5795 5796 5795 5794 5794 5794 5791 5788 5784 5782
5781 5784 5788 5789 5793 5796 5796 5798 5803 5801 5804 5807 5808 5809 5810 5810 5810 5811 5811 5810 5810 5810 5809 5809 5808 5806 5804 5803 5802 5801 5799 5796 5794 5792 5793 5793 5792 5791 5790 5788 5786 5783 5780 5776
5775 5779 5782 5784 5785 5787 5788 5793 5794 5795 5798 5799 5804 5805 5804 5805 5803 5806 5807 5806 5805 5805 5804 5803 5803 5801 5800 5800 5798 5797 5795 5793 5792 5790 5789 5790 5790 5787 5785 5783 5781 5778 5774 5771
5766 5769 5776 5775 5775 5780 5784 5784 5786 5790 5791 5793 5796 5800 5800 5799 5797 5798 5800 5801 5800 5799 5799 5798 5798 5797 5797 5796 5794 5792 5790 5789 5787 5785 5784 5784 5784 5783 5781 5779 5777 5774 5770 5766
5758 5760 5765 5769 5772 5773 5773 5776 5780 5780 5785 5786 5787 5792 5796 5793 5793 5791 5793 5795 5794 5794 5794 5794 5794 5793 5792 5790 5789 5788 5786 5784 5783 5781 5780 5778 5777 5777 5776 5774 5772 5769 5766 5763
5746 5748 5751 5760 5761 5761 5765 5770 5773 5775 5777 5776 5779 5784 5788 5787 5785 5785 5785 5787 5786 5786 5787 5787 5786 5787 5786 5784 5783 5783 5781 5779 5777 5776 5775 5772 5770 5769 5768 5766 5764 5761 5760 5757
5735 5738 5740 5747 5757 5758 5759 5761 5764 5768 5768 5770 5771 5775 5777 5780 5780 5779 5778 5779 5781 5780 5780 5781 5781 5782 5781 5780 5778 5777 5776 5774 5770 5769 5767 5766 5764 5762 5760 5759 5756 5753 5751 5750
5725 5729 5733 5738 5745 5748 5750 5753 5754 5757 5760 5760 5765 5766 5767 5767 5773 5776 5773 5773 5775 5776 5775 5774 5774 5774 5775 5774 5773 5771 5769 5767 5765 5762 5760 5758 5757 5755 5753 5751 5749 5746 5744 5742
5716 5719 5724 5728 5732 5737 5741 5743 5745 5747 5749 5752 5753 5755 5759 5760 5762 5764 5766 5765 5765 5767 5767 5766 5766 5765 5766 5765 5762 5763 5760 5759 5758 5757 5753 5751 5750 5748 5745 5743 5741 5739 5737 5734
5705 5710 5714 5717 5722 5726 5730 5733 5737 5740 5741 5742 5743 5747 5749 5750 5751 5753 5754 5754 5754 5754 5757 5758 5758 5757 5755 5755 5752 5750 5751 5750 5749 5748 5745 5744 5742 5740 5737 5735 5732 5731 5728 5727
5693 5698 5703 5706 5711 5712 5718 5723 5729 5731 5732 5734 5735 5737 5739 5739 5741 5742 5744 5744 5745 5746 5746 5747 5748 5747 5746 5745 5744 5741 5740 5739 5739 5738 5736 5735 5733 5731 5729 5727 5725 5723 5721 5720
5681 5687 5690 5694 5698 5702 5706 5711 5717 5720 5722 5723 5725 5727 5729 5730 5731 5731 5732 5733 5734 5734 5734 5735 5736 5735 5736 5735 5734 5731 5730 5728 5728 5728 5727 5726 5724 5722 5721 5719 5717 5716 5714 5712
5668 5674 5680 5682 5685 5689 5697 5700 5705 5709 5710 5711 5715 5717 5719 5720 5720 5720 5720 5722 5722 5722 5723 5724 5725 5726 5724 5723 5722 5717 5718 5719 5719 5719 5718 5716 5715 5713 5712 5711 5710 5708 5706 5705
5656 5662 5667 5672 5675 5679 5684 5688 5692 5693 5700 5702 5703 5704 5705 5707 5708 5708 5709 5710 5711 5711 5711 5711 5712 5713 5713 5713 5712 5708 5707 5709 5710 5710 5708 5707 5706 5705 5704 5702 5701 5700 5698 5696
5645 5651 5656 5659 5662 5666 5671 5675 5680 5683 5684 5687 5690 5692 5694 5695 5696 5697 5698 5699 5700 5699 5699 5699 5700 5701 5702 5702 5700 5700 5701 5701 5700 5699 5698 5697 5696 5695 5694 5693 5692 5691 5690 5688
5633 5637 5642 5647 5649 5652 5656 5660 5665 5668 5671 5675 5678 5680 5681 5682 5683 5683 5683 5684 5685 5686 5686 5686 5687 5687 5688 5688 5688 5688 5688 5687 5687 5687 5686 5685 5685 5685 5685 5684 5682 5681 5680 5678
5622 5627 5629 5633 5634 5639 5643 5647 5652 5656 5659 5663 5665 5666 5667 5668 5669 5668 5668 5667 5668 5670 5671 5672 5672 5672 5674 5675 5675 5674 5674 5674 5673 5674 5674 5674 5673 5673 5673 5673 5672 5671 5670 5668
5613 5616 5617 5618 5621 5626 5631 5636 5639 5642 5645 5648 5649 5651 5652 5653 5654 5655 5656 5656 5656 5656 5657 5659 5658 5659 5659 5659 5660 5659 5659 5661 5661 5661 5660 5660 5661 5660 5661 5660 5660 5660 5659 5657
5602 5603 5605 5607 5612 5615 5619 5623 5625 5628 5630 5633 5635 5635 5636 5637 5639 5640 5642 5643 5644 5642 5641 5643 5644 5646 5645 5645 5645 5645 5645 5646 5646 5646 5646 5647 5647 5648 5647 5648 5648 5648 5647 5646